Kingman, AZ

8:52 PM MST on May 24, 2017 (GMT -0700)
Kingman

Weather History for KIGM - December, 2011

Change the Weather History Date:

Friday, December 9, 2011

  Actual Average Record
Temperature  
Mean Temperature 42 °F 43 °F  
Max Temperature 55 °F 55 °F 73 °F (1981)
Min Temperature 28 °F 32 °F 6 °F (1978)
Degree Days  
Heating Degree Days 23 22  
Month to date heating degree days 246 186  
Since 1 July heating degree days 829 752  
Cooling Degree Days 0 0  
Month to date cooling degree days 0 0  
Year to date cooling degree days 2110 2093  
Moisture  
Dew Point 25 °F    
Average Humidity 54    
Maximum Humidity 78    
Minimum Humidity 30    
Precipitation  
Precipitation 0.00 in 0.03 in 0.62 in (1931)
Month to date precipitation 0.80 0.21  
Year to date precipitation 8.98 7.86  
Sea Level Pressure  
Sea Level Pressure 30.16 in    
Wind  
Wind Speed 7 mph (ENE)    
Max Wind Speed 14 mph    
Max Gust Speed 18 mph    
Visibility 10 miles    
Events      
T = Trace of Precipitation, MM = Missing Value Source: NWS Daily Summary

Daily Weather History Graph

Daily Weather History Graph

Search for Another Location

Airport or City:

Trip Planner

Search our weather history database for the weather conditions in past years. The results will help you decide how hot, cold, wet, or windy it might be!

Date:

Astronomy

Dec. 09, 2011 Rise Set
Actual Time 7:32 AM MST 5:23 PM MST
Civil Twilight 7:04 AM MST 5:51 PM MST
Nautical Twilight 6:32 AM MST 6:23 PM MST
Astronomical Twilight 6:01 AM MST 6:54 PM MST
Moon 4:50 PM MST (12/9) 6:43 AM MST (12/9)
Length of Visible Light 10h 47m
Length of Day
9h 50m
Waxing Gibbous, 99% of the Moon is Illuminated
Dec 9
Waxing Gibbous
Dec 10
Full
Dec 17
Last Quarter
Dec 24
New
Dec 31
First Quarter

Hourly Weather History & Observations

Time (MST) Temp. Windchill Dew Point Humidity Pressure Visibility Wind Dir Wind Speed Gust Speed Precip Events Conditions
12:48 AM 32.0 °F 26.4 °F 25.0 °F 75% 30.10 in 10.0 mi ESE 5.8 mph - N/A   Clear
1:48 AM 30.9 °F 27.5 °F 24.1 °F 76% 30.10 in 10.0 mi East 3.5 mph - N/A   Clear
2:48 AM 30.0 °F - 24.1 °F 79% 30.11 in 10.0 mi Calm Calm - N/A   Clear
3:48 AM 37.0 °F 33.3 °F 23.0 °F 57% 30.10 in 10.0 mi NE 4.6 mph - N/A   Clear
4:48 AM 30.0 °F 24.1 °F 23.0 °F 75% 30.12 in 10.0 mi ENE 5.8 mph - N/A   Clear
5:48 AM 30.0 °F 23.2 °F 23.0 °F 75% 30.15 in 10.0 mi East 6.9 mph - N/A   Clear
6:48 AM 30.9 °F 23.5 °F 23.0 °F 72% 30.17 in 10.0 mi East 8.1 mph - N/A   Clear
7:48 AM 28.9 °F 22.8 °F 21.9 °F 75% 30.19 in 10.0 mi ESE 5.8 mph - N/A   Clear
8:48 AM 37.0 °F 33.3 °F 27.0 °F 67% 30.20 in 10.0 mi ESE 4.6 mph - N/A   Clear
9:48 AM 43.0 °F 38.8 °F 27.0 °F 53% 30.21 in 10.0 mi NE 6.9 mph - N/A   Clear
10:48 AM 46.9 °F - 25.0 °F 42% 30.21 in 10.0 mi NNE 8.1 mph - N/A   Clear
11:48 AM 50.0 °F - 25.0 °F 38% 30.19 in 10.0 mi NNE 9.2 mph - N/A   Clear
12:48 PM 53.1 °F - 25.0 °F 34% 30.17 in 10.0 mi NNE 9.2 mph - N/A   Clear
1:48 PM 55.0 °F - 25.0 °F 31% 30.13 in 10.0 mi NNE 13.8 mph - N/A   Clear
2:48 PM 54.0 °F - 25.0 °F 33% 30.13 in 10.0 mi NNE 11.5 mph - N/A   Clear
3:48 PM 54.0 °F - 26.1 °F 34% 30.11 in 10.0 mi NNE 10.4 mph - N/A   Clear
4:48 PM 50.0 °F - 27.0 °F 41% 30.14 in 10.0 mi NNE 8.1 mph - N/A   Clear
5:48 PM 45.0 °F - 25.0 °F 46% 30.15 in 10.0 mi Calm Calm - N/A   Clear
6:48 PM 41.0 °F 35.8 °F 26.1 °F 55% 30.17 in 10.0 mi East 8.1 mph - N/A   Clear
7:48 PM 35.1 °F 29.3 °F 26.1 °F 70% 30.20 in 10.0 mi ESE 6.9 mph - N/A   Clear
8:48 PM 33.1 °F 27.7 °F 26.1 °F 75% 30.20 in 10.0 mi East 5.8 mph - N/A   Clear
9:48 PM 33.1 °F 27.7 °F 25.0 °F 72% 30.19 in 10.0 mi East 5.8 mph - N/A   Clear
10:48 PM 32.0 °F 28.7 °F 25.0 °F 75% 30.19 in 10.0 mi ESE 3.5 mph - N/A   Clear
11:48 PM 34.0 °F 28.0 °F 23.0 °F 64% 30.18 in 10.0 mi East 6.9 mph - N/A   Clear